Terug naar catalogus

CZ-6A DEB

ActiefPO
NORAD 61435·DEBRIS·🇨🇳 China

Gelanceerd Aug 6, 2024 vanaf Taiyuan Satellite Launch Center

Loading…

Volgende Passages (komende 24 uur)

TLE

VersSource: Space-Track

Epoch: Sep 14, 2026, 10:37 UTC

1 61435U 24140ZC  26257.44294923  .00001652  00000-0  31435-3 0  9992
2 61435  88.8770 247.4218 0103607 281.0557  77.9018 14.60256716109811

Volg CZ-6A DEB in realtime met AllMySat

Download on the App Store